This demonstration page uses our WeatherBlox Daily Observations layout. Learn more.

Left ArrowRight Arrow

Hourly Observations for August 3, 2018

Temp ( °F °C ) Dew Point ( °F °C ) Humidity (%) Winds ( mph kmh ) Pressure ( in mb ) Visibility ( mi km ) Precip ( " mm )
12:15 am 00:15 Clear 65 18.3 64 17.7 96 96 SSW 6 9 30.06 1018 10 16 0.00 0.00
12:35 am 00:35 Clear 65 18.4 64 17.9 97 97 S 7 11 30.03 1017 10 16 0.00 0.00
12:55 am 00:55 Clear 66 18.7 64 18 96 96 SSW 6 9 30.06 1018 10 16 0.00 0.00
1:15 am 01:15 Clear 65 18.5 64 17.8 96 96 SSW 5 7 30.06 1018 10 16 0.00 0.00
1:35 am 01:35 Clear 65 18.3 64 17.8 97 97 S 3 6 30.06 1018 10 16 0.00 0.00
1:55 am 01:55 Clear 65 18.3 64 17.7 96 96 S 5 7 30.06 1018 10 16 0.00 0.00
2:15 am 02:15 Clear 65 18.4 64 17.7 96 96 S 6 9 30.06 1018 10 16 0.00 0.00
2:35 am 02:35 Clear 65 18.5 64 17.6 95 95 S 3 6 30.06 1018 10 16 0.00 0.00
2:55 am 02:55 Clear 65 18.2 64 17.5 96 96 S 3 6 30.06 1018 10 16 0.00 0.00
3:15 am 03:15 Clear 64 18 63 17.4 96 96 SSW 5 7 30.06 1018 10 16 0.00 0.00
3:35 am 03:35 Clear 64 17.8 63 17.3 97 97 Calm 30.06 1018 10 16 0.00 0.00
3:55 am 03:55 Partly Cloudy 63 17.3 63 17.1 99 99 Calm 30.06 1018 10 16 0.00 0.00
4:15 am 04:15 Partly Cloudy 63 17.2 63 17 99 99 Calm 30.06 1018 10 16 0.00 0.00
4:35 am 04:35 Clear 62 16.9 62 16.7 99 99 NW 3 6 30.06 1018 10 16 0.00 0.00
4:55 am 04:55 Clear 64 17.5 63 17 97 97 WNW 3 6 30.06 1018 10 16 0.00 0.00
5:15 am 05:15 Clear 63 17.2 62 16.7 97 97 Calm 30.06 1018 10 16 0.00 0.00
5:35 am 05:35 Clear 61 15.9 61 15.9 100 100 Calm 30.06 1018 7 11 0.00 0.00
5:55 am 05:55 Clear 60 15.6 60 15.6 100 100 Calm 30.06 1018 7 11 0.00 0.00
6:15 am 06:15 Clear with Mist and Fog 59 15 59 15 100 100 SSE 5 7 30.06 1018 4 6 0.00 0.00
6:35 am 06:35 Clear with Mist and Fog 58 14.7 58 14.7 100 100 SE 3 6 30.06 1018 4 6 0.00 0.00
6:55 am 06:55 Sunny with Mist and Fog 58 14.5 58 14.5 100 100 Calm 30.06 1018 3 5 0.00 0.00
7:15 am 07:15 Sunny with Mist and Fog 59 14.9 59 14.9 100 100 Calm 30.06 1018 5 8 0.00 0.00
7:35 am 07:35 Sunny 61 15.9 61 15.9 100 100 Calm 30.06 1018 7 11 0.00 0.00
7:55 am 07:55 Sunny 64 17.9 64 17.9 100 100 Calm 30.06 1018 10 16 0.00 0.00
8:15 am 08:15 Sunny 66 19 65 18.5 97 97 SW 3 6 30.06 1018 10 16 0.00 0.00
8:35 am 08:35 Mostly Cloudy 68 19.9 66 18.8 93 93 Calm 30.06 1018 10 16 0.00 0.00
8:55 am 08:55 Mostly Cloudy 69 20.4 66 19 92 92 Calm 30.06 1018 10 16 0.00 0.00
9:15 am 09:15 Sunny 71 21.5 67 19.4 88 88 SW 3 6 30.06 1018 10 16 0.00 0.00
9:35 am 09:35 Sunny 73 22.5 68 19.9 85 85 SW 6 9 30.03 1017 10 16 0.00 0.00
9:55 am 09:55 Partly Cloudy 72 22.3 67 19.6 85 85 SW 6 9 30.03 1017 10 16 0.00 0.00
10:15 am 10:15 Partly Cloudy 74 23.5 68 19.9 80 80 WSW 5 7 30.06 1018 10 16 0.00 0.00
10:35 am 10:35 Partly Cloudy 76 24.3 69 20.7 80 80 Calm 30.06 1018 10 16 0.00 0.00
10:55 am 10:55 Partly Cloudy 76 24.6 69 20.3 77 77 WSW 5 7 30.03 1017 10 16 0.00 0.00
11:15 am 11:15 Partly Cloudy 78 25.3 70 20.9 77 77 SW 6 9 30.06 1018 10 16 0.00 0.00
11:35 am 11:35 Mostly Cloudy 77 25 68 20.1 74 74 SW 6 9 30.03 1017 10 16 0.00 0.00
11:55 am 11:55 Partly Cloudy 78 25.7 69 20.3 72 72 WSW 7 11 30.03 1017 10 16 0.00 0.00
12:15 pm 12:15 Mostly Cloudy 79 26.2 69 20.3 70 70 SW 7 11 30.03 1017 10 16 0.00 0.00
12:35 pm 12:35 Mostly Cloudy 79 26.1 69 20.6 72 72 WSW 8 13 30.03 1017 10 16 0.00 0.00
12:55 pm 12:55 Partly Cloudy 80 26.7 70 21.1 71 71 SW 10 17 30.03 1017 10 16 0.00 0.00
1:15 pm 13:15 Sunny 80 26.7 69 20.7 70 70 SW 10 17 30.03 1017 10 16 0.00 0.00
1:35 pm 13:35 Sunny 80 26.9 69 20.8 69 69 SSW 8 13 30.03 1017 10 16 0.00 0.00
1:55 pm 13:55 Sunny 81 27 70 21.2 71 71 W 6 9 30.03 1017 10 16 0.00 0.00
2:15 pm 14:15 Sunny 81 27.4 70 21.2 69 69 WSW 8 13 30.03 1017 10 16 0.00 0.00
2:35 pm 14:35 Sunny 82 27.6 71 21.5 69 69 SW 6 9 30.03 1017 10 16 0.00 0.00
2:55 pm 14:55 Partly Cloudy 83 28.5 72 22.3 69 69 Calm 30.03 1017 10 16 0.00 0.00
3:15 pm 15:15 Sunny 82 27.8 70 20.9 66 66 SW 6 9 30.03 1017 10 16 0.00 0.00
3:35 pm 15:35 Partly Cloudy 82 27.8 70 21 67 67 SW 5 7 30.03 1017 10 16 0.00 0.00
3:55 pm 15:55 Partly Cloudy 83 28.3 71 21.6 67 67 SW 8 13 30.03 1017 10 16 0.00 0.00
4:15 pm 16:15 Partly Cloudy 81 27.4 71 21.5 70 70 SW 5 7 30.03 1017 10 16 0.00 0.00
4:35 pm 16:35 Partly Cloudy 82 28 70 21.3 67 67 SW 6 9 30.03 1017 10 16 0.00 0.00
4:55 pm 16:55 Sunny with Nearby Thunderstorms 83 28.2 71 21.7 68 68 SW 9 15 30.03 1017 10 16 0.00 0.00
5:15 pm 17:15 Sunny 83 28.4 72 22 68 68 SSW 8 13 30.03 1017 10 16 0.00 0.00
5:35 pm 17:35 Partly Cloudy 82 28 72 22.2 71 71 SW 7 11 30.03 1017 10 16 0.00 0.00
5:55 pm 17:55 Partly Cloudy 83 28.2 71 21.7 68 68 WSW 9 15 30.03 1017 10 16 0.00 0.00
6:15 pm 18:15 Partly Cloudy 82 28 71 21.8 69 69 SW 9 15 30.03 1017 10 16 0.00 0.00
6:35 pm 18:35 Partly Cloudy 82 27.7 71 21.6 69 69 SW 9 15 30.03 1017 10 16 0.00 0.00
6:55 pm 18:55 Partly Cloudy 82 27.5 70 21.3 69 69 SW 6 9 30.03 1017 10 16 0.00 0.00
7:15 pm 19:15 Sunny 81 27.4 71 21.6 71 71 WSW 7 11 30.03 1017 10 16 0.00 0.00
7:35 pm 19:35 Sunny with Nearby Thunderstorms 81 27 71 21.5 72 72 WSW 6 9 30.03 1017 10 16 0.00 0.00
7:55 pm 19:55 Sunny 78 25.6 71 21.7 79 79 WSW 3 6 30.03 1017 10 16 0.00 0.00
8:15 pm 20:15 Sunny 77 25 72 22.2 85 85 Calm 30.03 1017 10 16 0.00 0.00
8:35 pm 20:35 Sunny 75 24 73 22.7 92 92 Calm 30.03 1017 10 16 0.00 0.00
8:55 pm 20:55 Sunny 74 23.3 73 22.6 96 96 Calm 30.03 1017 10 16 0.00 0.00
9:15 pm 21:15 Clear 73 22.6 72 22 96 96 Calm 30.03 1017 10 16 0.00 0.00
9:35 pm 21:35 Clear 73 22.6 72 22 96 96 Calm 30.03 1017 10 16 0.00 0.00
9:55 pm 21:55 Clear 71 21.9 71 21.5 98 98 Calm 30.03 1017 10 16 0.00 0.00
10:15 pm 22:15 Clear 69 20.8 69 20.7 99 99 Calm 30.06 1018 7 11 0.00 0.00
10:35 pm 22:35 Clear 70 21 70 21 100 100 Calm 30.06 1018 10 16 0.00 0.00
10:55 pm 22:55 Clear 71 21.5 71 21.4 99 99 Calm 30.06 1018 10 16 0.00 0.00
11:15 pm 23:15 Clear 70 21 70 21 100 100 Calm 30.06 1018 10 16 0.00 0.00
11:35 pm 23:35 Partly Cloudy 70 21.2 69 20.8 98 98 Calm 30.06 1018 10 16 0.00 0.00
11:55 pm 23:55 Partly Cloudy 69 20.8 69 20.5 98 98 Calm 30.06 1018 10 16 0.00 0.00

Powered by AerisWeather